Regional Weather Roundup
Issued by NWS State College, PA

Home | Current Version | Previous Version | Text Only | Print | Product List | Glossary Off
Versions: 1 2 3 4 5 6 7 8 9 10 11 12 13 14 15 16 17 18 19 20 21 22 23 24 25 26 27 28 29 30 31 32 33 34 35 36 37 38 39 40 41 42 43 44 45 46 47 48 49 50

093
ASUS41 KCTP 051503
RWRCTP

REGIONAL WEATHER ROUNDUP
NATIONAL WEATHER SERVICE STATE COLLEGE PA
1100 AM EDT THU MAY 05 2016

Note: "fair" indicates few or no clouds below 12,000 feet with no
significant weather and/or obstructions to visibility.

* = STATION THAT DOES NOT REPORT PRECIPITATION /E.G. RAIN...SNOW...ETC/
    THUNDER OR FOG.

PAZ002>004-007>009-013>016-020>023-029>032-051600-
WESTERN PENNSYLVANIA

CITY           SKY/WX    TMP DP  RH WIND       PRES   REMARKS
ERIE           CLOUDY    50  46  86 NE12      29.79R
MEADVILLE      CLOUDY    55  46  71 NE12      29.74S
FRANKLIN*      CLOUDY    54  46  76 N3        29.76R
NEW CASTLE     LGT RAIN  52  50  93 N6        29.75S
BEAVER COUNTY  DRIZZLE   54  48  82 N6        29.74R
BUTLER*        CLOUDY    54  46  76 NE6       29.75S
PITTSBURGH INT PTSUNNY   55  48  77 N9        29.71S
PITTSBURGH     PTSUNNY   55  49  80 VRB5      29.70S
INDIANA*       CLOUDY    57  46  67 VRB5G15   29.73S
LATROBE        CLOUDY    54  54 100 VRB5      29.71S
WASHINGTON CO* CLOUDY    54  46  76 N8        29.72S
$$

PAZ004>006-010>012-017>019-024>028-033>037-041-042-045-046-049>053-051600-
CENTRAL PENNSYLVANIA

CITY           SKY/WX    TMP DP  RH WIND       PRES   REMARKS
BRADFORD       CLOUDY    54  43  66 NE10G17   29.74R
DUBOIS         CLOUDY   N/A N/A N/A N8        29.71S
CLEARFIELD     CLOUDY    59  44  57 MISG      29.70F
JOHNSTOWN      PTSUNNY   53  42  66 E8        29.68S
ALTOONA        CLOUDY    51  45  79 NE7       29.70S
STATE COLLEGE  CLOUDY    52  46  82 NE9       29.72R
WILLIAMSPORT   CLOUDY    55  44  66 N9        29.72R
SELINSGROVE    CLOUDY    54  46  74 NE8       29.72F
FT INDIANTOWN  CLOUDY    54  46  74 NE7       29.70S
CAPITAL CITY   CLOUDY    56  44  64 VRB5      29.70S
HARRISBURG     CLOUDY    54  45  71 N6        29.70S
YORK           CLOUDY    52  45  77 NE9       29.70S
$$

PAZ038>040-043-044-047-048-054-055-060>062-067>071-051600-
EASTERN PENNSYLVANIA

CITY           SKY/WX    TMP DP  RH WIND       PRES   REMARKS
SCRANTON       CLOUDY    52  42  69 NE8       29.71F
MOUNT POCONO   CLOUDY    45  41  86 NE12      29.70S
ALLENTOWN      CLOUDY    53  43  68 NE12      29.71S
QUAKERTOWN*    CLOUDY    50  45  81 NE10      29.71S
READING        CLOUDY    53  43  68 NE10G18   29.69F
LANCASTER      CLOUDY    52  45  77 NE12      29.70S
COATESVILLE    CLOUDY    48  48 100 NE6G15    29.70S
POTTSTOWN      CLOUDY    51  45  79 NE9       29.71S
BLUE BELL      CLOUDY    48  45  87 CALM      29.69S
DOYLESTOWN     CLOUDY    50  44  80 N8        29.69S
WILLOW GROVE   NOT AVBL
NORTH PHILA    CLOUDY    52  46  80 NE14      29.71S
PHILADELPHIA   CLOUDY    53  43  68 NE13      29.69S
$$




USA.gov is the U.S. government's official web portal to all federal, state and local government web resources and services.